This is the latest recevied weather packets stored in our database for station/object KC5EZZ-2. If no packets are shown the sender has not sent any weather packets the latest 1 day(s).
| Time | Temp. | Humidity | Pressure | Rain* | Wind** | Luminosity | Snow |
|---|---|---|---|---|---|---|---|
| 1778011488 | 33.89° C | - | - | 0 mm | 3.58 m/s, 238° | - | - |
| 1778011186 | 34.44° C | - | - | 0 mm | 3.58 m/s, 264° | - | - |
| 1778010886 | 35° C | - | - | 0 mm | 2.24 m/s, 246° | - | - |
| 1778010586 | 34.44° C | - | - | 0 mm | 3.13 m/s, 253° | - | - |
| 1778010282 | 34.44° C | - | - | 0 mm | 4.02 m/s, 238° | - | - |
| 1778009982 | 35° C | - | - | 0 mm | 3.13 m/s, 233° | - | - |
| 1778009682 | 34.44° C | - | - | 0 mm | 3.13 m/s, 288° | - | - |
| 1778009593 | 33.89° C | - | - | 0 mm | 3.13 m/s, 260° | - | - |
| 1778009380 | 33.89° C | - | - | 0 mm | 2.68 m/s, 273° | - | - |
| 1778009080 | 33.89° C | - | - | 0 mm | 3.13 m/s, 260° | - | - |
| 1778008780 | 33.89° C | - | - | 0 mm | 3.13 m/s, 270° | - | - |
| 1778008478 | 33.89° C | - | - | 0 mm | 2.24 m/s, 242° | - | - |
| 1778008178 | 33.89° C | - | - | 0 mm | 3.13 m/s, 260° | - | - |
| 1778007878 | 33.89° C | - | - | 0 mm | 4.47 m/s, 255° | - | - |
| 1778007576 | 33.89° C | - | - | 0 mm | 2.68 m/s, 284° | - | - |
| 1778007276 | 33.89° C | - | - | 0 mm | 2.24 m/s, 263° | - | - |
| 1778006976 | 33.33° C | - | - | 0 mm | 4.02 m/s, 250° | - | - |
| 1778006674 | 32.78° C | - | - | 0 mm | 4.02 m/s, 246° | - | - |
| 1778006374 | 32.78° C | - | - | 0 mm | 3.58 m/s, 232° | - | - |
| 1778006074 | 33.33° C | - | - | 0 mm | 4.02 m/s, 284° | - | - |
| 1778005772 | 32.78° C | - | - | 0 mm | 3.13 m/s, 264° | - | - |
| 1778005472 | 32.22° C | - | - | 0 mm | 4.02 m/s, 290° | - | - |
| 1778005173 | 32.78° C | - | - | 0 mm | 4.47 m/s, 270° | - | - |
| 1778004870 | 32.78° C | - | - | 0 mm | 4.02 m/s, 253° | - | - |
| 1778004570 | 32.78° C | - | - | 0 mm | 3.58 m/s, 242° | - | - |
* Rain latest hour (hover to see other rain measurements)
** Current wind speed in m/s (hover to see current wind gust speed)